QPF
0.02 0.01 0.01 0.01 0.01 0.00 0.01 0.01 0.01 0.01 0.00 0.00 0.00 0.00 0.01 0.01 0.01 0.01 0.02 0.02 0.02 0.02 0.02 0.02 0.02 0.01 0.01 0.01 0.00 0.00 0.00 0.00 0.00 0.00 0.00 0.00 0.00 0.00 0.00 0.00 0.00 0.00 0.01 0.01
0.02 0.02 0.01 0.01 0.01 0.01 0.01 0.01 0.01 0.00 0.00 0.00 0.00 0.00 0.01 0.01 0.01 0.01 0.01 0.02 0.02 0.02 0.02 0.02 0.01 0.01 0.00 0.00 0.00 0.00 0.00 0.00 0.00 0.00 0.00 0.00 0.00 0.00 0.00 0.00 0.00 0.00 0.00 0.01
0.03 0.01 0.02 0.02 0.01 0.01 0.01 0.01 0.01 0.01 0.01 0.00 0.00 0.01 0.01 0.01 0.01 0.01 0.02 0.02 0.01 0.01 0.01 0.01 0.01 0.01 0.00 0.00 0.00 0.00 0.00 0.00 0.00 0.00 0.00 0.00 0.00 0.00 0.00 0.00 0.00 0.00 0.00 0.00
0.04 0.03 0.04 0.02 0.01 0.00 0.00 0.00 0.01 0.01 0.01 0.01 0.01 0.01 0.01 0.01 0.01 0.01 0.01 0.01 0.01 0.01 0.01 0.01 0.00 0.00 0.00 0.00 0.00 0.00 0.00 0.00 0.00 0.01 0.00 0.00 0.00 0.00 0.00 0.00 0.00 0.00 0.00 0.00
0.05 0.04 0.03 0.01 0.00 0.01 0.01 0.01 0.01 0.01 0.01 0.01 0.01 0.01 0.01 0.01 0.01 0.01 0.01 0.01 0.01 0.01 0.00 0.01 0.00 0.00 0.00 0.00 0.00 0.00 0.00 0.00 0.00 0.00 0.00 0.00 0.00 0.00 0.00 0.00 0.00 0.00 0.00 0.00
0.05 0.05 0.03 0.01 0.00 0.01 0.01 0.01 0.01 0.01 0.01 0.01 0.01 0.01 0.01 0.00 0.00 0.00 0.00 0.00 0.00 0.00 0.00 0.00 0.00 0.00 0.00 0.00 0.00 0.00 0.00 0.00 0.00 0.00 0.00 0.00 0.00 0.00 0.00 0.00 0.00 0.00 0.00 0.00
0.05 0.05 0.02 0.01 0.01 0.02 0.03 0.03 0.01 0.01 0.01 0.01 0.01 0.02 0.01 0.00 0.00 0.00 0.00 0.00 0.00 0.00 0.01 0.01 0.01 0.01 0.01 0.01 0.00 0.00 0.00 0.00 0.00 0.00 0.00 0.00 0.00 0.00 0.00 0.00 0.00 0.00 0.00 0.00
0.03 0.04 0.03 0.01 0.01 0.02 0.03 0.02 0.02 0.01 0.01 0.01 0.01 0.01 0.00 0.00 0.00 0.00 0.00 0.00 0.00 0.00 0.01 0.01 0.01 0.01 0.01 0.01 0.00 0.00 0.00 0.00 0.00 0.00 0.00 0.00 0.00 0.00 0.00 0.00 0.00 0.00 0.00 0.00
0.02 0.02 0.01 0.01 0.02 0.02 0.02 0.02 0.01 0.01 0.01 0.00 0.00 0.00 0.00 0.00 0.00 0.00 0.00 0.00 0.00 0.00 0.01 0.01 0.01 0.01 0.01 0.00 0.00 0.00 0.00 0.00 0.00 0.01 0.01 0.00 0.00 0.00 0.00 0.00 0.00 0.00 0.01 0.00
0.03 0.03 0.02 0.01 0.01 0.01 0.01 0.01 0.01 0.01 0.01 0.01 0.01 0.00 0.01 0.01 0.01 0.01 0.01 0.00 0.01 0.01 0.01 0.01 0.01 0.01 0.01 0.00 0.00 0.00 0.00 0.00 0.00 0.00 0.01 0.01 0.00 0.00 0.00 0.00 0.00 0.01 0.01 0.01
0.03 0.02 0.02 0.01 0.01 0.02 0.02 0.02 0.02 0.02 0.02 0.01 0.01 0.01 0.01 0.01 0.01 0.01 0.01 0.01 0.01 0.01 0.01 0.01 0.01 0.01 0.01 0.01 0.01 0.00 0.01 0.01 0.00 0.00 0.01 0.01 0.01 0.01 0.01 0.01 0.01 0.01 0.01 0.01
0.02 0.01 0.02 0.01 0.01 0.02 0.02 0.02 0.03 0.02 0.02 0.02 0.02 0.02 0.02 0.02 0.01 0.01 0.01 0.01 0.01 0.00 0.00 0.00 0.00 0.00 0.01 0.01 0.01 0.01 0.01 0.01 0.01 0.01 0.01 0.01 0.01 0.01 0.01 0.01 0.01 0.00 0.01 0.01
0.01 0.01 0.00 0.01 0.01 0.01 0.01 0.01 0.02 0.02 0.02 0.02 0.02 0.02 0.02 0.02 0.01 0.01 0.01 0.01 0.01 0.00 0.00 0.00 0.00 0.00 0.00 0.00 0.01 0.01 0.01 0.01 0.01 0.01 0.01 0.01 0.01 0.02 0.02 0.02 0.02 0.01 0.01 0.01
0.00 0.00 0.00 0.00 0.00 0.00 0.00 0.01 0.01 0.01 0.02 0.02 0.02 0.02 0.01 0.01 0.01 0.01 0.01 0.01 0.01 0.01 0.01 0.00 0.00 0.00 0.00 0.00 0.00 0.01 0.00 0.00 0.00 0.01 0.01 0.01 0.01 0.01 0.01 0.02 0.02 0.02 0.01 0.01
0.00 0.00 0.00 0.00 0.00 0.00 0.00 0.00 0.00 0.01 0.01 0.01 0.01 0.01 0.01 0.01 0.01 0.01 0.01 0.01 0.01 0.01 0.01 0.01 0.01 0.01 0.00 0.00 0.00 0.00 0.01 0.01 0.00 0.00 0.01 0.01 0.01 0.01 0.01 0.01 0.02 0.02 0.02 0.02
0.00 0.00 0.00 0.00 0.00 0.00 0.00 0.00 0.00 0.01 0.01 0.01 0.01 0.01 0.01 0.01 0.01 0.02 0.02 0.02 0.01 0.01 0.01 0.01 0.01 0.00 0.00 0.00 0.00 0.00 0.01 0.01 0.01 0.01 0.01 0.01 0.01 0.01 0.01 0.01 0.02 0.02 0.02 0.02
0.01 0.00 0.00 0.00 0.00 0.00 0.00 0.00 0.00 0.01 0.01 0.01 0.01 0.01 0.01 0.01 0.01 0.02 0.02 0.02 0.02 0.01 0.01 0.01 0.01 0.01 0.00 0.01 0.01 0.00 0.00 0.01 0.01 0.01 0.01 0.01 0.01 0.01 0.01 0.01 0.01 0.01 0.01 0.01
0.01 0.01 0.01 0.01 0.00 0.00 0.00 0.00 0.00 0.01 0.01 0.01 0.01 0.01 0.02 0.02 0.01 0.01 0.02 0.02 0.02 0.02 0.01 0.01 0.01 0.01 0.00 0.00 0.00 0.00 0.00 0.01 0.01 0.01 0.01 0.01 0.01 0.01 0.01 0.01 0.01 0.01 0.01 0.01
0.01 0.01 0.01 0.01 0.01 0.01 0.01 0.01 0.01 0.01 0.01 0.01 0.01 0.01 0.01 0.02 0.02 0.02 0.01 0.01 0.01 0.01 0.01 0.01 0.01 0.00 0.00 0.00 0.00 0.00 0.01 0.01 0.01 0.01 0.01 0.01 0.01 0.01 0.01 0.01 0.01 0.01 0.01 0.01
0.01 0.01 0.01 0.01 0.01 0.01 0.01 0.01 0.01 0.01 0.01 0.01 0.01 0.01 0.01 0.02 0.02 0.02 0.01 0.01 0.01 0.01 0.01 0.01 0.00 0.00 0.00 0.00 0.01 0.01 0.01 0.01 0.01 0.01 0.01 0.01 0.01 0.01 0.01 0.01 0.01 0.01 0.01 0.01
0.01 0.01 0.01 0.01 0.01 0.01 0.01 0.01 0.01 0.01 0.01 0.01 0.01 0.01 0.01 0.01 0.01 0.01 0.01 0.01 0.01 0.01 0.01 0.01 0.00 0.00 0.00 0.01 0.01 0.01 0.01 0.01 0.01 0.01 0.01 0.01 0.01 0.01 0.01 0.01 0.01 0.01 0.01 0.01
0.00 0.01 0.01 0.01 0.01 0.01 0.01 0.01 0.01 0.00 0.00 0.00 0.01 0.01 0.01 0.01 0.01 0.01 0.01 0.01 0.01 0.01 0.01 0.00 0.00 0.01 0.01 0.01 0.01 0.01 0.01 0.01 0.01 0.01 0.01 0.01 0.01 0.01 0.01 0.01 0.01 0.01 0.01 0.01
0.00 0.00 0.00 0.00 0.00 0.00 0.00 0.00 0.00 0.00 0.00 0.00 0.00 0.00 0.01 0.01 0.01 0.01 0.01 0.01 0.01 0.01 0.01 0.01 0.01 0.01 0.01 0.01 0.01 0.01 0.01 0.01 0.01 0.01 0.01 0.01 0.01 0.01 0.01 0.01 0.01 0.01 0.01 0.01
0.00 0.00 0.00 0.00 0.00 0.00 0.00 0.00 0.00 0.00 0.00 0.00 0.00 0.00 0.00 0.00 0.00 0.00 0.00 0.00 0.01 0.01 0.00 0.01 0.01 0.01 0.01 0.01 0.01 0.01 0.01 0.01 0.01 0.01 0.01 0.01 0.01 0.01 0.01 0.01 0.01 0.01 0.01 0.01
0.00 0.00 0.00 0.00 0.00 0.00 0.00 0.00 0.00 0.00 0.00 0.00 0.00 0.00 0.00 0.00 0.00 0.00 0.00 0.00 0.00 0.01 0.00 0.00 0.01 0.01 0.01 0.01 0.01 0.01 0.01 0.01 0.01 0.01 0.01 0.01 0.00 0.00 0.00 0.00 0.01 0.01 0.01 0.01
0.00 0.00 0.00 0.00 0.00 0.00 0.00 0.00 0.00 0.00 0.00 0.00 0.00 0.00 0.00 0.00 0.00 0.00 0.00 0.00 0.00 0.00 0.00 0.00 0.01 0.00 0.00 0.01 0.01 0.01 0.01 0.01 0.01 0.00 0.00 0.00 0.01 0.01 0.01 0.01 0.01 0.01 0.01 0.01
0.00 0.00 0.00 0.00 0.00 0.00 0.00 0.00 0.00 0.00 0.00 0.00 0.00 0.00 0.00 0.00 0.00 0.00 0.00 0.00 0.00 0.00 0.00 0.01 0.01 0.00 0.01 0.01 0.01 0.01 0.01 0.01 0.01 0.01 0.01 0.01 0.01 0.01 0.01 0.01 0.01 0.01 0.01 0.01
MSLP
1029.27 1029.38 1029.41 1029.34 1029.18 1028.92 1028.56 1028.09 1027.51 1026.84 1026.09 1025.30 1024.50 1023.74 1023.07 1022.50 1022.07 1021.79 1021.64 1021.61 1021.67 1021.77 1021.89 1022.00 1022.08 1022.10 1022.08 1022.01 1021.89 1021.75 1021.59 1021.42 1021.24 1021.05 1020.87 1020.70 1020.53 1020.38 1020.26 1020.16 1020.11 1020.10 1020.14 1020.23
1029.65 1029.58 1029.38 1029.08 1028.68 1028.21 1027.69 1027.13 1026.54 1025.91 1025.28 1024.63 1024.00 1023.40 1022.86 1022.38 1022.00 1021.72 1021.53 1021.44 1021.43 1021.47 1021.55 1021.64 1021.73 1021.79 1021.81 1021.80 1021.75 1021.66 1021.53 1021.38 1021.21 1021.02 1020.82 1020.63 1020.44 1020.27 1020.12 1020.01 1019.93 1019.89 1019.90 1019.95
1029.93 1029.65 1029.20 1028.64 1028.00 1027.32 1026.65 1026.00 1025.40 1024.84 1024.33 1023.85 1023.41 1023.00 1022.61 1022.25 1021.94 1021.67 1021.47 1021.32 1021.24 1021.22 1021.24 1021.30 1021.37 1021.44 1021.50 1021.53 1021.52 1021.47 1021.38 1021.25 1021.08 1020.88 1020.68 1020.46 1020.26 1020.08 1019.92 1019.79 1019.70 1019.64 1019.61 1019.62
1030.02 1029.54 1028.87 1028.08 1027.22 1026.37 1025.57 1024.87 1024.27 1023.79 1023.40 1023.09 1022.83 1022.59 1022.36 1022.12 1021.88 1021.64 1021.41 1021.22 1021.07 1020.98 1020.94 1020.96 1021.01 1021.09 1021.16 1021.22 1021.25 1021.23 1021.16 1021.04 1020.88 1020.68 1020.46 1020.24 1020.02 1019.82 1019.65 1019.51 1019.40 1019.32 1019.26 1019.22
1029.86 1029.21 1028.36 1027.40 1026.39 1025.42 1024.55 1023.82 1023.25 1022.85 1022.58 1022.42 1022.32 1022.23 1022.13 1021.98 1021.79 1021.57 1021.32 1021.09 1020.88 1020.72 1020.63 1020.60 1020.63 1020.71 1020.80 1020.89 1020.95 1020.96 1020.91 1020.80 1020.64 1020.43 1020.20 1019.96 1019.73 1019.52 1019.33 1019.17 1019.03 1018.92 1018.82 1018.74
1029.33 1028.57 1027.62 1026.56 1025.49 1024.47 1023.59 1022.89 1022.38 1022.06 1021.90 1021.86 1021.87 1021.90 1021.88 1021.80 1021.64 1021.42 1021.15 1020.87 1020.61 1020.40 1020.27 1020.21 1020.23 1020.31 1020.42 1020.54 1020.63 1020.66 1020.64 1020.54 1020.38 1020.17 1019.92 1019.65 1019.40 1019.16 1018.94 1018.76 1018.59 1018.45 1018.31 1018.18
1028.37 1027.56 1026.59 1025.53 1024.47 1023.50 1022.67 1022.03 1021.60 1021.37 1021.31 1021.35 1021.45 1021.55 1021.58 1021.53 1021.39 1021.16 1020.87 1020.55 1020.25 1020.01 1019.85 1019.78 1019.80 1019.89 1020.03 1020.17 1020.29 1020.35 1020.34 1020.26 1020.10 1019.87 1019.60 1019.31 1019.02 1018.75 1018.50 1018.28 1018.08 1017.90 1017.73 1017.56
1026.96 1026.18 1025.26 1024.29 1023.32 1022.45 1021.73 1021.20 1020.87 1020.73 1020.74 1020.85 1021.00 1021.13 1021.19 1021.15 1021.01 1020.77 1020.47 1020.13 1019.82 1019.57 1019.40 1019.33 1019.36 1019.46 1019.62 1019.79 1019.93 1020.02 1020.03 1019.95 1019.78 1019.54 1019.25 1018.92 1018.60 1018.28 1017.99 1017.73 1017.49 1017.28 1017.08 1016.88
1025.15 1024.46 1023.67 1022.83 1022.03 1021.31 1020.74 1020.34 1020.12 1020.06 1020.13 1020.28 1020.46 1020.60 1020.67 1020.64 1020.50 1020.27 1019.97 1019.65 1019.34 1019.10 1018.95 1018.89 1018.93 1019.05 1019.23 1019.41 1019.57 1019.66 1019.67 1019.59 1019.41 1019.16 1018.84 1018.48 1018.11 1017.75 1017.42 1017.12 1016.85 1016.60 1016.38 1016.17
1023.08 1022.52 1021.90 1021.25 1020.64 1020.11 1019.70 1019.43 1019.32 1019.33 1019.45 1019.63 1019.81 1019.96 1020.04 1020.01 1019.89 1019.69 1019.42 1019.13 1018.86 1018.65 1018.52 1018.49 1018.54 1018.68 1018.85 1019.03 1019.19 1019.27 1019.28 1019.18 1018.99 1018.71 1018.36 1017.97 1017.56 1017.17 1016.79 1016.45 1016.15 1015.88 1015.64 1015.42
1020.92 1020.52 1020.09 1019.65 1019.24 1018.89 1018.65 1018.51 1018.48 1018.56 1018.70 1018.89 1019.08 1019.23 1019.31 1019.31 1019.23 1019.06 1018.85 1018.62 1018.41 1018.25 1018.15 1018.14 1018.21 1018.33 1018.49 1018.66 1018.79 1018.85 1018.83 1018.72 1018.50 1018.20 1017.82 1017.40 1016.96 1016.53 1016.12 1015.74 1015.41 1015.11 1014.85 1014.63
1018.83 1018.61 1018.37 1018.13 1017.92 1017.75 1017.64 1017.61 1017.65 1017.76 1017.92 1018.11 1018.29 1018.44 1018.54 1018.57 1018.53 1018.44 1018.29 1018.14 1017.99 1017.89 1017.83 1017.84 1017.90 1018.01 1018.14 1018.27 1018.36 1018.39 1018.34 1018.19 1017.96 1017.63 1017.24 1016.80 1016.33 1015.87 1015.42 1015.01 1014.64 1014.31 1014.03 1013.79
1016.96 1016.90 1016.84 1016.79 1016.75 1016.73 1016.74 1016.78 1016.87 1017.00 1017.15 1017.33 1017.49 1017.64 1017.75 1017.82 1017.84 1017.81 1017.75 1017.67 1017.59 1017.54 1017.52 1017.53 1017.59 1017.68 1017.77 1017.85 1017.90 1017.89 1017.80 1017.63 1017.37 1017.04 1016.63 1016.18 1015.70 1015.21 1014.73 1014.28 1013.87 1013.50 1013.17 1012.90
1015.32 1015.42 1015.53 1015.64 1015.74 1015.84 1015.94 1016.05 1016.16 1016.28 1016.42 1016.57 1016.71 1016.85 1016.97 1017.07 1017.13 1017.17 1017.18 1017.17 1017.16 1017.15 1017.16 1017.18 1017.23 1017.28 1017.34 1017.37 1017.38 1017.33 1017.22 1017.04 1016.78 1016.44 1016.04 1015.59 1015.10 1014.59 1014.08 1013.59 1013.13 1012.70 1012.31 1011.98
1013.91 1014.14 1014.39 1014.64 1014.87 1015.06 1015.23 1015.37 1015.49 1015.60 1015.71 1015.82 1015.94 1016.06 1016.19 1016.30 1016.41 1016.49 1016.56 1016.61 1016.65 1016.68 1016.71 1016.73 1016.77 1016.80 1016.82 1016.82 1016.80 1016.73 1016.62 1016.44 1016.19 1015.87 1015.49 1015.05 1014.56 1014.04 1013.50 1012.97 1012.44 1011.94 1011.48 1011.07
1012.64 1012.98 1013.35 1013.71 1014.04 1014.31 1014.53 1014.69 1014.81 1014.91 1014.99 1015.07 1015.16 1015.26 1015.37 1015.50 1015.62 1015.74 1015.85 1015.94 1016.02 1016.08 1016.12 1016.15 1016.18 1016.20 1016.20 1016.20 1016.17 1016.10 1016.00 1015.84 1015.62 1015.34 1014.99 1014.57 1014.10 1013.58 1013.02 1012.44 1011.85 1011.28 1010.73 1010.22
1011.40 1011.84 1012.31 1012.76 1013.17 1013.50 1013.77 1013.95 1014.08 1014.16 1014.22 1014.27 1014.33 1014.42 1014.52 1014.64 1014.77 1014.91 1015.04 1015.16 1015.26 1015.34 1015.40 1015.45 1015.48 1015.50 1015.51 1015.51 1015.49 1015.45 1015.37 1015.26 1015.09 1014.85 1014.55 1014.17 1013.72 1013.20 1012.63 1012.02 1011.38 1010.73 1010.09 1009.49
1010.14 1010.66 1011.20 1011.73 1012.20 1012.58 1012.88 1013.10 1013.24 1013.32 1013.37 1013.41 1013.45 1013.52 1013.61 1013.73 1013.86 1014.01 1014.16 1014.29 1014.41 1014.51 1014.59 1014.65 1014.69 1014.73 1014.76 1014.78 1014.79 1014.79 1014.76 1014.69 1014.57 1014.39 1014.14 1013.80 1013.39 1012.89 1012.32 1011.69 1011.02 1010.32 1009.61 1008.93
1008.85 1009.42 1010.01 1010.59 1011.11 1011.54 1011.88 1012.12 1012.28 1012.37 1012.43 1012.48 1012.52 1012.59 1012.68 1012.80 1012.94 1013.09 1013.25 1013.39 1013.53 1013.64 1013.74 1013.82 1013.89 1013.95 1014.00 1014.05 1014.10 1014.13 1014.14 1014.12 1014.06 1013.93 1013.73 1013.44 1013.07 1012.61 1012.06 1011.44 1010.76 1010.04 1009.30 1008.56
1007.58 1008.18 1008.81 1009.42 1009.97 1010.43 1010.79 1011.06 1011.25 1011.38 1011.46 1011.53 1011.60 1011.68 1011.78 1011.91 1012.06 1012.22 1012.38 1012.54 1012.69 1012.82 1012.93 1013.03 1013.12 1013.20 1013.27 1013.35 1013.42 1013.49 1013.53 1013.55 1013.52 1013.43 1013.28 1013.04 1012.71 1012.30 1011.79 1011.21 1010.56 1009.86 1009.12 1008.37
1006.44 1007.06 1007.70 1008.31 1008.87 1009.34 1009.73 1010.03 1010.25 1010.41 1010.53 1010.63 1010.73 1010.85 1010.97 1011.12 1011.29 1011.46 1011.63 1011.80 1011.96 1012.09 1012.22 1012.33 1012.42 1012.52 1012.60 1012.69 1012.77 1012.85 1012.90 1012.94 1012.93 1012.87 1012.75 1012.56 1012.28 1011.92 1011.48 1010.96 1010.37 1009.73 1009.04 1008.33
1005.54 1006.16 1006.78 1007.38 1007.93 1008.40 1008.79 1009.10 1009.35 1009.55 1009.71 1009.86 1010.00 1010.15 1010.31 1010.49 1010.67 1010.86 1011.04 1011.21 1011.36 1011.50 1011.62 1011.73 1011.83 1011.91 1012.00 1012.08 1012.15 1012.21 1012.26 1012.29 1012.29 1012.24 1012.14 1011.98 1011.75 1011.45 1011.09 1010.65 1010.15 1009.59 1008.99 1008.35
1004.94 1005.54 1006.14 1006.71 1007.22 1007.67 1008.05 1008.37 1008.63 1008.86 1009.06 1009.25 1009.44 1009.63 1009.83 1010.03 1010.23 1010.42 1010.60 1010.77 1010.91 1011.04 1011.15 1011.24 1011.32 1011.38 1011.45 1011.50 1011.55 1011.58 1011.61 1011.61 1011.59 1011.54 1011.45 1011.31 1011.12 1010.89 1010.59 1010.25 1009.85 1009.40 1008.90 1008.35
1004.65 1005.23 1005.79 1006.31 1006.78 1007.19 1007.54 1007.86 1008.13 1008.38 1008.62 1008.85 1009.07 1009.30 1009.52 1009.73 1009.94 1010.13 1010.30 1010.44 1010.57 1010.67 1010.75 1010.81 1010.86 1010.90 1010.93 1010.95 1010.97 1010.97 1010.95 1010.92 1010.87 1010.80 1010.70 1010.58 1010.42 1010.23 1010.01 1009.75 1009.44 1009.10 1008.70 1008.26
1004.62 1005.17 1005.68 1006.15 1006.56 1006.93 1007.26 1007.56 1007.83 1008.10 1008.36 1008.61 1008.86 1009.11 1009.34 1009.56 1009.76 1009.93 1010.08 1010.19 1010.28 1010.35 1010.39 1010.42 1010.44 1010.45 1010.44 1010.43 1010.41 1010.37 1010.32 1010.25 1010.17 1010.07 1009.96 1009.83 1009.68 1009.52 1009.34 1009.14 1008.92 1008.66 1008.36 1008.01
1004.74 1005.26 1005.72 1006.13 1006.50 1006.82 1007.12 1007.41 1007.68 1007.95 1008.23 1008.50 1008.76 1009.01 1009.25 1009.45 1009.63 1009.77 1009.88 1009.95 1010.00 1010.03 1010.03 1010.03 1010.01 1009.99 1009.97 1009.93 1009.88 1009.81 1009.73 1009.64 1009.52 1009.39 1009.25 1009.10 1008.94 1008.78 1008.62 1008.45 1008.27 1008.07 1007.83 1007.56
1004.89 1005.37 1005.79 1006.15 1006.48 1006.77 1007.05 1007.33 1007.61 1007.89 1008.17 1008.45 1008.71 1008.96 1009.18 1009.36 1009.50 1009.60 1009.66 1009.68 1009.69 1009.67 1009.64 1009.61 1009.57 1009.53 1009.49 1009.45 1009.38 1009.31 1009.21 1009.09 1008.94 1008.78 1008.60 1008.42 1008.23 1008.04 1007.86 1007.68 1007.50 1007.32 1007.11 1006.88
Thickness
5442 5451 5452 5450 5449 5446 5443 5448 5448 5463 5469 5477 5477 5474 5472 5470 5468 5467 5464 5462 5459 5457 5455 5454 5453 5452 5452 5453 5453 5455 5455 5456 5456 5456 5456 5455 5455 5455 5455 5454 5454 5453 5452 5451
5432 5442 5442 5439 5444 5445 5444 5446 5447 5452 5459 5471 5471 5467 5463 5460 5458 5456 5455 5453 5450 5448 5445 5443 5442 5442 5441 5441 5442 5443 5443 5444 5445 5444 5444 5443 5443 5443 5443 5442 5442 5441 5441 5440
5426 5431 5427 5426 5443 5443 5442 5445 5444 5446 5458 5461 5457 5457 5454 5451 5449 5446 5445 5443 5441 5439 5436 5434 5433 5433 5431 5431 5431 5431 5432 5432 5432 5432 5432 5432 5432 5431 5431 5430 5430 5430 5429 5429
5412 5413 5409 5442 5450 5448 5442 5444 5445 5446 5448 5449 5448 5446 5442 5441 5438 5435 5433 5432 5430 5428 5427 5425 5424 5423 5422 5421 5421 5421 5420 5420 5420 5420 5420 5420 5420 5419 5419 5418 5418 5418 5418 5418
5401 5404 5419 5439 5439 5437 5431 5434 5438 5437 5437 5438 5437 5433 5430 5432 5429 5425 5423 5421 5419 5417 5416 5415 5413 5412 5411 5410 5410 5409 5408 5408 5408 5408 5408 5408 5408 5407 5408 5407 5407 5407 5407 5407
5395 5396 5407 5431 5430 5430 5426 5420 5432 5429 5427 5427 5425 5417 5421 5423 5419 5416 5414 5412 5409 5408 5406 5405 5403 5401 5400 5399 5398 5397 5397 5397 5397 5397 5397 5396 5396 5396 5396 5396 5396 5396 5397 5396
5385 5388 5404 5417 5417 5419 5410 5416 5422 5421 5419 5417 5413 5411 5412 5411 5409 5407 5404 5402 5400 5397 5395 5394 5393 5392 5390 5389 5388 5387 5387 5387 5386 5386 5385 5385 5385 5385 5385 5385 5385 5385 5386 5386
5378 5379 5393 5401 5401 5401 5404 5407 5409 5408 5407 5405 5403 5403 5401 5400 5397 5396 5393 5391 5389 5386 5385 5384 5384 5382 5381 5379 5379 5378 5377 5376 5376 5375 5375 5375 5374 5373 5373 5373 5373 5373 5374 5375
5382 5387 5392 5390 5391 5394 5395 5395 5397 5396 5395 5394 5392 5391 5390 5388 5386 5384 5382 5380 5379 5377 5375 5375 5374 5373 5371 5370 5369 5368 5367 5366 5365 5365 5364 5364 5363 5363 5363 5362 5362 5362 5362 5363
5375 5381 5385 5384 5385 5386 5387 5385 5386 5385 5383 5382 5380 5379 5378 5377 5375 5374 5373 5371 5369 5367 5366 5364 5364 5363 5361 5360 5359 5358 5357 5356 5355 5354 5354 5354 5353 5353 5352 5352 5351 5352 5352 5353
5363 5372 5375 5377 5377 5378 5378 5377 5376 5375 5374 5372 5371 5369 5368 5366 5365 5364 5364 5361 5359 5358 5357 5356 5354 5353 5352 5351 5350 5348 5347 5346 5345 5345 5345 5344 5344 5343 5343 5343 5342 5342 5342 5342
5364 5367 5365 5369 5370 5370 5368 5367 5366 5365 5364 5363 5362 5360 5359 5358 5356 5355 5354 5352 5351 5349 5348 5346 5345 5344 5343 5342 5341 5339 5338 5337 5336 5336 5335 5335 5334 5335 5335 5335 5336 5335 5335 5335
5360 5360 5359 5361 5362 5360 5359 5358 5358 5357 5355 5354 5353 5351 5350 5349 5348 5347 5345 5344 5342 5340 5339 5338 5337 5336 5335 5333 5332 5330 5329 5328 5327 5327 5326 5326 5326 5325 5326 5327 5327 5328 5328 5328
5351 5351 5349 5350 5350 5350 5348 5348 5347 5347 5346 5345 5343 5342 5340 5340 5339 5337 5336 5335 5334 5332 5331 5330 5329 5328 5327 5325 5324 5322 5321 5320 5319 5318 5317 5317 5317 5317 5317 5317 5318 5319 5320 5320
5342 5341 5340 5339 5339 5339 5338 5338 5337 5335 5335 5334 5333 5332 5331 5330 5329 5328 5328 5327 5326 5324 5323 5322 5321 5320 5318 5317 5315 5313 5312 5311 5310 5309 5309 5309 5309 5309 5309 5309 5310 5311 5311 5312
5332 5331 5330 5329 5329 5329 5328 5327 5327 5326 5326 5325 5324 5323 5322 5321 5320 5319 5318 5317 5316 5315 5314 5313 5312 5311 5310 5308 5306 5305 5304 5304 5303 5302 5301 5301 5301 5301 5301 5301 5302 5302 5303 5303
5322 5321 5321 5319 5319 5319 5319 5319 5319 5318 5317 5317 5316 5314 5313 5311 5310 5309 5309 5308 5307 5307 5306 5305 5304 5303 5301 5299 5298 5297 5295 5295 5295 5294 5293 5293 5293 5294 5294 5294 5294 5295 5295 5296
5317 5317 5315 5314 5312 5311 5311 5310 5310 5309 5308 5308 5306 5304 5303 5302 5301 5300 5300 5299 5298 5297 5297 5297 5296 5295 5293 5291 5290 5289 5288 5287 5287 5286 5286 5286 5286 5286 5286 5286 5287 5287 5288 5289
5310 5309 5307 5307 5305 5303 5302 5301 5300 5299 5299 5298 5296 5295 5294 5293 5292 5292 5291 5290 5288 5288 5288 5288 5288 5286 5284 5283 5282 5281 5280 5280 5280 5279 5279 5279 5279 5279 5279 5279 5279 5280 5280 5281
5301 5300 5299 5297 5295 5294 5292 5292 5290 5289 5288 5288 5287 5285 5284 5283 5283 5282 5281 5280 5280 5280 5280 5280 5279 5277 5276 5274 5274 5273 5272 5272 5272 5271 5271 5271 5271 5271 5271 5272 5272 5272 5273 5273
5292 5291 5289 5287 5286 5284 5284 5283 5281 5280 5279 5278 5277 5276 5275 5274 5273 5273 5272 5272 5272 5272 5272 5272 5270 5268 5267 5267 5266 5265 5264 5264 5263 5263 5263 5263 5263 5264 5264 5264 5265 5265 5266 5266
5283 5281 5280 5279 5277 5276 5275 5274 5273 5272 5271 5270 5269 5268 5267 5266 5265 5264 5264 5264 5264 5264 5263 5262 5260 5260 5259 5259 5257 5256 5256 5256 5255 5255 5255 5255 5256 5256 5257 5257 5257 5258 5259 5259
5275 5274 5272 5271 5270 5268 5267 5266 5265 5264 5263 5262 5261 5260 5259 5259 5258 5256 5257 5256 5255 5255 5254 5253 5253 5253 5252 5251 5249 5249 5248 5248 5248 5248 5248 5248 5249 5249 5250 5251 5251 5252 5252 5253
5267 5266 5264 5263 5261 5260 5259 5259 5258 5257 5256 5255 5254 5253 5252 5251 5251 5250 5249 5249 5248 5247 5245 5245 5245 5245 5245 5243 5242 5242 5241 5241 5241 5241 5241 5242 5242 5243 5244 5245 5246 5247 5247 5248
5258 5257 5256 5255 5255 5254 5254 5252 5251 5250 5249 5248 5247 5246 5245 5244 5243 5242 5241 5240 5240 5239 5237 5237 5237 5237 5236 5236 5235 5235 5235 5235 5235 5235 5236 5236 5237 5237 5239 5240 5241 5242 5243 5245
5251 5250 5250 5249 5248 5248 5247 5245 5244 5243 5242 5242 5241 5239 5238 5237 5235 5234 5233 5233 5231 5231 5230 5229 5228 5228 5228 5228 5229 5229 5229 5230 5230 5230 5230 5231 5232 5233 5234 5236 5237 5239 5240 5242
5245 5244 5243 5242 5242 5242 5240 5239 5238 5237 5236 5235 5233 5232 5231 5230 5228 5227 5226 5225 5224 5223 5222 5222 5221 5221 5221 5222 5223 5223 5224 5224 5225 5225 5225 5226 5227 5229 5231 5232 5234 5235 5237 5239